Home > Weather > Stornoway > Past weeks

Flag for United Kingdom Past Weather in Stornoway, Scotland, United Kingdom — Yesterday and Last 2 Weeks

Now
57 °F

Passing clouds.


Feels Like: 53 °F
Forecast: 45 / 54 °F
Wind: 17 mph from Northeast

Location: Stornoway

Current Time: May 24, 2016 at 3:02:44 PM

Latest Report: May 24, 2016 at 2:20 PM


Visibility: N/A

Pressure: 30.33 "Hg

Humidity: 67%

Dew Point: 46 °F

Location of StornowayLocation

Past Weather in Stornoway — Graph

°F

Stornoway Temperature Yesterday

Maximum temperature yesterday: 59 °F (at 1:50 PM)
Minimum temperature yesterday: 39 °F (at 3:20 AM)
Average temperature yesterday: 50 °F

High & Low Weather Summary for the Past Weeks

 TemperatureHumidityPressure
High68 °F (May 9, 2:20 PM)100% (May 16, 1:50 AM)30.33 "Hg (May 16, 1:50 AM)
Low34 °F (May 14, 2:50 AM)39% (May 14, 1:20 PM)29.39 "Hg (May 21, 10:20 AM)
Average50 °F82%29.93 "Hg
* Reported May 9 2:20 PM — May 24 2:20 PM, Stornoway, Weather by CustomWeather, © 2016

Note: Actual official high and low records may vary slightly from our data, if they occured in-between our weather recording intervals... More about our weather records

Advertising

Stornoway Weather History for the Previous 24 Hours

Scroll right to see more
 ConditionsComfort  
Time TempWeatherWind HumidityBarometerVisibility
2:20 PM
Tue, May 24
57 °FPassing clouds.17 mph67%30.33 "HgN/A
1:20 PM57 °FPassing clouds.18 mph67%30.33 "HgN/A
12:50 PM57 °FPassing clouds.17 mph67%30.33 "HgN/A
12:20 PM57 °FPassing clouds.16 mph72%30.33 "HgN/A
11:50 AM57 °FPassing clouds.17 mph72%30.33 "HgN/A
11:20 AM57 °FPassing clouds.16 mph72%30.33 "HgN/A
10:50 AM57 °FPassing clouds.16 mph72%30.33 "HgN/A
10:20 AM55 °FPassing clouds.15 mph77%30.33 "HgN/A
9:50 AM55 °FPassing clouds.15 mph77%30.33 "HgN/A
9:20 AM55 °FPassing clouds.15 mph77%30.33 "HgN/A
8:50 AM54 °FPassing clouds.15 mph77%30.33 "HgN/A
8:20 AM52 °FScattered clouds.18 mph82%30.33 "HgN/A
7:50 AM52 °FScattered clouds.16 mph88%30.33 "HgN/A
7:20 AM52 °FScattered clouds.16 mph82%30.33 "HgN/A
6:50 AM50 °FScattered clouds.16 mph88%30.33 "HgN/A
6:20 AM50 °FScattered clouds.15 mph88%30.30 "HgN/A
5:50 AM48 °FPartly sunny.16 mph94%30.30 "HgN/A
5:20 AM48 °FPassing clouds.14 mph94%30.30 "HgN/A
4:50 AM48 °FPassing clouds.16 mph94%30.30 "HgN/A
4:20 AM48 °FPassing clouds.15 mph94%30.30 "HgN/A
3:50 AM48 °FPassing clouds.15 mph94%30.30 "HgN/A
3:20 AM48 °FPassing clouds.13 mph87%30.30 "HgN/A
2:50 AM48 °FPassing clouds.13 mph87%30.30 "HgN/A
2:20 AM48 °FPassing clouds.13 mph87%30.30 "HgN/A
1:50 AM48 °FPassing clouds.13 mph87%30.30 "HgN/A
1:20 AM46 °FPassing clouds.13 mph100%30.30 "HgN/A
12:50 AM46 °FPassing clouds.7 mph87%30.30 "HgN/A
12:20 AM46 °FPassing clouds.9 mph93%30.30 "HgN/A
11:50 PM
Mon, May 23
46 °FPassing clouds.8 mph93%30.30 "HgN/A
11:20 PM48 °FCool.10 mph87%30.30 "HgN/A
10:50 PM48 °FPartly sunny.12 mph94%30.30 "HgN/A
10:20 PM48 °FPartly sunny.12 mph94%30.30 "HgN/A
9:50 PM50 °FBroken clouds.13 mph82%30.30 "HgN/A
9:20 PM50 °FPartly sunny.13 mph82%30.30 "HgN/A
8:50 PM50 °FPartly sunny.12 mph88%30.27 "HgN/A
8:20 PM50 °FPartly sunny.13 mph88%30.27 "HgN/A
7:50 PM50 °FOvercast.14 mph88%30.27 "HgN/A
7:20 PM52 °FScattered clouds.15 mph82%30.24 "HgN/A
6:50 PM52 °FScattered clouds.16 mph88%30.24 "HgN/A
6:20 PM54 °FScattered clouds.15 mph82%30.24 "HgN/A
5:50 PM57 °FScattered clouds.14 mph72%30.24 "HgN/A
5:20 PM57 °FScattered clouds.14 mph77%30.21 "HgN/A
4:50 PM57 °FScattered clouds.13 mph77%30.21 "HgN/A
4:20 PM54 °FScattered clouds.12 mph82%30.21 "HgN/A
3:50 PM54 °FScattered clouds.12 mph88%30.21 "HgN/A
3:20 PM54 °FScattered clouds.9 mph82%30.18 "HgN/A
Weather by CustomWeather, © 2016

See weather overviewHow to use our weather pages